Dewpoint
30 21 19 18 17 18 21 22 21 22 21 19 18 15 14 14 15 18 18 22 25 21 18 16 17 15 16 18 18 18 18 18 20 22 25 29 31 31 30 30 30 29 28 32 34 36 37 37 38 38 37 36 37 38 38 38 38 38 38 38 38 40 41 41 40 40 40 40 41 41 42 42 44 45 46 47 48 47 47 47 47 47 49 51 53 54
30 23 19 18 19 20 21 23 22 21 21 20 18 16 15 15 14 16 15 25 29 20 14 18 19 18 18 18 20 21 21 20 20 21 20 20 22 26 28 28 28 29 31 33 33 36 37 36 38 38 38 37 35 36 37 37 37 37 37 36 37 40 41 41 40 40 40 39 39 39 40 40 42 44 45 46 47 47 48 47 47 47 48 49 51 52
28 24 23 22 21 20 22 22 23 22 20 19 17 15 13 13 16 20 22 25 26 25 18 16 18 19 22 22 22 22 22 20 21 22 21 20 20 20 22 24 25 24 25 25 27 32 34 36 37 38 38 38 36 35 36 36 36 36 36 36 36 39 40 40 40 40 39 39 39 38 38 39 41 44 45 45 46 46 46 46 47 47 47 48 49 50
25 27 27 23 20 18 18 20 22 23 22 19 18 15 12 12 9 11 19 22 24 24 21 20 18 21 22 21 21 22 23 23 26 27 25 24 21 20 19 20 22 22 22 22 21 23 28 33 35 37 37 37 38 36 35 36 36 36 36 35 36 37 39 40 40 41 39 40 40 39 39 40 42 44 46 47 46 46 45 45 46 46 47 47 48 49
24 26 30 25 21 18 16 18 20 20 19 21 20 17 14 14 13 11 12 21 22 22 21 20 20 19 20 20 21 20 21 23 23 23 24 24 25 23 23 22 21 18 18 18 19 21 22 29 33 35 37 37 37 37 36 36 36 37 35 35 35 36 39 39 40 40 40 41 40 41 43 43 44 45 46 46 46 46 45 44 45 45 47 48 48 49
27 27 29 27 24 21 20 18 19 19 15 17 20 19 17 17 13 16 17 16 13 12 19 20 13 10 13 19 20 21 19 16 17 18 17 19 20 21 20 20 19 22 21 18 16 18 21 23 28 33 35 37 37 37 37 37 37 36 36 35 35 36 38 38 39 39 40 40 39 41 41 41 42 42 46 45 45 46 45 44 44 45 47 48 48 49
27 28 27 26 25 25 23 20 20 19 15 14 14 19 20 19 13 15 15 14 11 9 13 20 9 3 11 13 16 19 20 19 14 14 12 12 14 16 18 18 18 18 17 18 20 19 20 22 24 29 33 35 36 37 38 38 37 37 37 36 35 35 37 39 38 39 39 39 39 39 38 38 39 39 43 44 45 46 46 45 44 45 48 48 48 49
26 27 26 26 25 24 24 22 22 20 17 15 19 19 19 19 18 16 16 14 15 16 18 16 13 7 3 9 14 17 17 18 18 15 13 11 11 12 14 16 17 18 17 18 18 19 20 20 22 24 30 34 35 36 38 38 38 37 37 36 36 36 37 38 38 38 39 37 38 38 38 38 38 38 39 44 45 46 46 45 44 44 47 49 48 49
28 24 26 25 24 24 23 23 23 22 19 18 20 21 19 18 19 18 17 15 15 13 11 14 14 7 8 9 10 16 12 14 17 17 13 13 13 12 13 14 15 17 18 18 19 19 19 20 21 23 25 32 35 36 37 38 38 38 37 37 36 36 37 38 38 38 38 38 37 37 37 37 39 39 40 44 46 46 46 45 45 44 46 49 49 49
26 25 26 27 25 23 24 24 24 23 20 21 23 25 22 23 21 20 18 17 15 12 10 14 14 8 7 11 9 11 11 12 14 14 13 13 12 13 15 14 14 15 17 19 19 18 19 19 19 21 22 27 35 38 39 38 38 38 38 37 36 36 36 38 38 38 38 37 38 37 37 37 39 41 43 45 45 45 46 45 45 45 45 48 49 49
30 32 34 30 27 26 25 25 25 25 22 25 27 23 22 21 20 22 20 19 13 11 12 14 15 11 6 8 9 9 9 7 5 9 12 13 14 16 18 16 17 16 16 18 19 19 19 19 20 20 20 21 28 37 38 38 38 38 38 37 36 35 36 37 38 38 38 37 37 37 37 37 38 42 43 44 45 45 46 45 45 46 46 47 48 50
29 30 29 29 32 28 24 24 24 27 27 25 24 24 23 21 23 20 16 19 14 11 15 17 15 15 7 8 11 5 4 5 4 7 7 8 10 14 17 20 19 18 18 19 19 19 19 20 21 21 20 21 22 31 37 38 38 37 37 37 36 35 35 37 38 38 38 38 38 38 38 38 39 41 43 43 44 45 45 45 45 46 47 47 48 49
25 28 30 30 32 29 27 24 24 22 25 24 24 24 20 16 17 13 16 14 13 11 15 18 17 10 12 10 10 5 6 4 5 7 7 8 8 10 12 16 21 23 22 22 21 21 22 23 23 23 22 23 24 27 32 37 37 37 36 36 35 35 35 36 37 38 38 38 38 38 38 39 40 41 42 43 44 45 45 45 45 46 46 47 48 49
18 23 28 28 29 30 28 23 22 22 23 22 22 22 19 14 14 9 13 13 14 16 19 14 15 11 11 12 12 11 9 8 9 9 8 8 8 9 11 16 18 21 23 24 25 25 25 26 27 27 26 26 28 29 32 34 36 37 36 35 35 34 35 35 37 37 38 38 38 38 39 39 41 41 42 43 43 44 45 45 45 46 46 47 47 48
13 12 19 26 24 26 27 25 23 22 22 22 21 22 20 17 14 9 12 10 11 12 16 15 11 6 11 10 10 11 11 11 10 9 10 10 9 8 12 16 20 24 23 23 23 24 25 26 27 29 29 28 29 31 34 35 36 36 36 36 35 34 34 35 36 37 37 38 38 39 39 40 41 41 42 43 43 44 44 45 45 46 47 47 47 48
17 18 21 21 20 18 21 24 27 25 23 22 21 22 20 19 20 16 16 15 13 12 10 8 11 15 12 13 15 12 13 11 12 11 12 10 10 10 10 9 9 9 13 22 25 26 25 26 27 29 30 29 29 31 34 35 36 36 36 36 35 34 34 35 36 37 37 38 38 39 40 40 41 42 42 42 42 43 44 44 45 46 47 47 47 47
13 8 16 15 17 18 21 19 23 27 18 22 22 19 20 20 21 18 19 21 18 16 12 14 12 12 11 10 11 13 12 11 11 11 11 10 11 12 13 13 11 10 11 13 22 26 27 29 31 31 30 30 30 31 34 35 36 36 36 36 35 34 34 35 36 37 37 37 38 39 40 40 41 41 41 41 41 42 43 44 45 46 47 47 47 47
9 9 15 12 10 23 21 19 19 25 26 25 20 20 22 22 22 20 15 16 16 14 14 17 13 10 9 11 15 14 12 12 12 12 13 12 12 11 14 16 15 15 14 15 20 25 26 28 30 32 33 31 31 32 33 35 36 36 36 36 35 35 35 35 36 37 38 38 38 40 40 41 41 41 41 40 40 42 43 45 45 46 46 46 47 47
14 5 8 13 17 19 19 17 16 22 29 25 23 28 20 15 17 19 16 13 12 12 13 16 17 15 11 12 15 13 11 12 12 13 11 10 11 12 11 12 13 17 19 22 22 25 26 27 27 30 32 32 32 34 34 35 36 37 36 36 35 35 35 36 37 38 39 39 39 41 41 41 41 41 41 41 40 42 43 44 45 46 46 46 45 45
13 2 3 8 15 16 13 17 10 19 19 25 28 25 26 25 21 17 18 18 17 12 12 11 15 14 16 13 14 14 14 13 14 14 9 7 8 9 10 12 12 14 14 16 22 25 26 27 26 27 30 32 32 34 36 36 37 37 37 37 36 36 36 37 38 39 40 40 40 41 41 41 42 41 41 41 41 42 43 44 45 45 45 46 44 45
7 12 1 7 12 8 5 20 18 14 11 14 15 15 16 22 25 24 22 19 15 12 12 12 10 13 15 15 15 15 15 15 15 15 17 16 16 16 14 12 14 14 16 16 19 23 25 26 27 28 29 32 33 34 36 37 37 37 37 37 36 36 36 37 39 40 40 41 41 41 42 42 42 41 41 41 41 42 43 44 44 45 45 44 44 44
4 11 6 10 7 3 3 9 15 16 16 16 15 14 17 15 11 11 11 23 19 16 12 10 10 12 20 17 17 13 14 14 16 18 18 18 17 17 18 20 21 21 21 20 20 21 26 27 27 29 30 32 33 34 36 37 38 37 37 37 37 36 37 38 40 41 41 41 41 41 42 43 43 42 42 41 42 41 43 44 44 44 43 43 44 44
12 7 6 2 3 4 5 13 16 15 15 14 14 16 18 17 17 11 6 12 11 10 14 17 13 14 18 15 16 16 17 17 16 17 20 22 22 23 23 24 24 25 27 29 27 25 26 28 29 30 30 31 32 34 35 37 38 38 37 37 37 38 38 40 40 41 42 42 42 42 42 43 43 43 43 42 42 42 43 44 44 43 44 44 43 43
16 6 7 8 9 7 4 6 10 13 14 11 16 18 15 12 15 11 11 12 8 8 10 14 15 14 19 19 17 14 14 13 13 15 21 24 22 22 23 24 25 25 25 29 30 30 30 30 30 30 30 31 32 34 35 37 38 38 37 37 38 38 39 40 41 41 41 42 42 42 42 43 43 43 43 42 42 42 43 43 43 43 44 43 43 44
4 5 7 1 -4 -6 -4 -1 9 15 19 17 16 16 13 15 15 15 15 14 8 7 11 7 5 16 22 17 15 12 10 11 12 13 17 21 21 22 23 25 25 25 25 27 28 29 30 30 30 31 31 31 33 34 35 36 37 37 37 37 38 39 39 40 40 41 41 41 42 42 42 42 42 42 42 42 43 42 42 42 42 42 43 43 43 43
1 2 -2 -7 -11 -14 -19 -20 -13 -1 7 5 3 7 8 16 11 10 3 7 5 9 9 6 6 10 12 14 12 9 8 9 11 13 14 17 21 21 23 25 25 25 24 24 28 28 28 29 30 31 31 32 33 34 35 35 36 36 37 36 38 38 39 40 40 40 41 41 41 41 41 41 41 42 42 42 42 42 42 42 41 42 42 43 43 43
-1 4 2 1 -4 -8 -8 -9 -1 1 -1 -2 0 3 6 10 13 12 10 8 3 4 5 7 10 11 13 12 10 9 8 8 11 13 12 14 19 21 22 23 24 24 24 24 25 28 28 28 29 30 31 32 32 32 34 34 35 35 35 36 36 37 39 39 40 40 40 40 41 41 41 41 41 42 42 41 42 41 41 41 40 41 41 42 43 43
-1 2 4 2 1 1 -0 -2 -2 1 -2 1 2 4 5 6 10 10 10 5 9 7 2 8 14 11 10 10 9 7 7 8 10 12 11 13 20 20 20 22 25 23 25 25 24 24 26 28 29 29 30 31 32 32 33 33 35 36 36 36 35 36 38 38 38 39 39 40 40 40 40 41 41 41 41 41 40 40 40 40 39 40 41 40 42 42
3 1 3 3 3 4 3 2 1 1 2 2 3 4 5 7 8 8 9 12 13 8 3 8 10 10 9 9 8 7 6 8 12 11 10 16 19 19 20 20 21 23 24 24 24 25 24 26 28 29 29 30 31 31 32 33 33 32 33 34 35 35 37 38 38 38 38 38 39 39 40 40 40 40 39 38 39 39 39 39 39 39 39 40 41 42
3 1 2 1 1 1 3 4 5 4 4 5 5 5 7 7 7 8 9 9 9 7 8 8 7 7 8 7 6 6 9 13 12 11 14 15 17 19 19 19 20 23 25 25 24 25 26 26 26 27 29 29 30 31 31 33 33 34 35 35 35 35 36 37 37 37 37 38 38 39 38 38 38 38 37 38 38 38 38 38 38 38 38 39 40 41
7 1 7 -0 0 1 2 5 6 6 6 5 6 7 7 6 4 1 2 4 5 4 4 3 3 2 5 5 7 11 14 11 9 10 12 14 15 18 18 17 20 23 26 25 25 25 24 25 26 26 26 28 29 29 31 32 32 33 33 33 34 35 35 37 36 36 37 38 38 38 37 37 37 36 37 38 38 37 37 37 37 37 38 38 39 41
7 -5 3 0 -2 -1 2 3 4 5 6 3 1 1 2 1 -0 -1 -0 0 2 3 4 5 5 5 8 10 12 14 12 9 9 12 14 13 14 16 16 16 21 25 26 25 25 25 24 24 24 26 26 26 27 29 29 30 31 31 32 33 34 35 33 35 36 37 36 36 36 35 36 36 36 36 36 36 37 36 36 35 35 36 37 38 39 40
4 -3 -2 -5 -4 -2 -1 1 1 -2 -2 -5 -3 -1 -2 -1 -2 -4 -5 -1 1 4 4 4 4 6 6 10 11 9 9 9 12 13 13 13 14 15 14 15 25 27 26 26 26 25 24 24 24 25 25 27 27 28 29 30 30 30 31 32 33 33 33 35 35 36 36 35 35 35 35 35 36 36 35 36 36 36 35 35 36 36 36 38 39 39
3 1 -5 -5 -4 -4 -7 -5 -5 -6 -12 -10 -2 -4 -6 -6 -5 -5 -5 -6 -5 -2 -3 -1 1 6 8 9 8 7 10 11 10 9 12 14 15 15 12 22 28 28 27 27 27 26 25 25 24 24 24 25 26 28 28 29 30 30 30 30 30 33 33 34 35 35 35 34 35 35 35 35 36 36 35 35 35 34 35 35 36 36 36 36 37 40
4 3 -1 -9 -6 -4 -10 -9 -8 -12 -10 -3 -1 -3 -4 -5 -5 -6 -7 -7 -7 -5 -4 -2 2 6 7 7 4 1 1 1 2 6 12 17 16 11 21 30 29 29 28 28 27 26 26 26 25 24 24 24 26 27 28 28 28 29 28 29 30 31 32 33 34 34 34 34 34 34 35 35 35 35 35 34 34 34 35 35 35 35 35 36 38 39
3 4 -4 -1 -3 -3 -7 -6 -15 -13 -7 0 -1 -0 -0 -2 -4 -4 -4 -4 -4 -4 -2 -1 0 1 -0 -0 0 2 3 5 11 17 15 10 12 28 31 30 31 30 29 29 28 27 27 27 26 25 25 25 25 24 25 26 28 27 28 28 29 30 31 32 33 33 32 33 33 34 34 35 35 35 34 34 34 34 35 34 35 35 35 36 36 37
4 4 2 -0 -0 -4 -3 -3 -5 -2 -2 -3 -3 -7 -5 -3 -4 -5 -6 -5 -4 -4 -2 -2 -0 -0 1 2 4 6 8 2 -6 -6 1 24 28 29 30 31 31 30 31 31 30 29 29 28 27 26 26 24 24 23 23 24 27 28 26 27 27 28 28 29 31 32 32 32 33 34 34 35 35 34 34 34 34 34 35 34 34 33 33 35 35 36
6 3 5 -0 -1 1 -3 -4 -5 -6 -10 -8 -7 -7 -3 -2 -3 -3 -4 -5 -5 -6 -4 -4 -3 -2 -0 0 -1 -3 -1 -7 -8 -7 26 27 28 29 29 29 29 30 31 32 31 29 29 28 28 28 26 25 25 25 24 24 26 27 26 26 27 27 27 28 30 31 31 32 32 33 34 34 35 34 34 34 34 35 35 35 34 34 34 35 34 35
7 5 7 1 -0 3 0 -4 -6 -10 -10 -6 -9 -10 -5 -1 -1 -2 -7 -6 -4 -4 -3 -5 -6 -5 -5 -6 -6 -3 -1 -1 -2 6 27 27 27 28 27 26 26 27 29 29 28 28 28 28 28 28 27 26 26 26 25 24 25 26 27 26 26 27 27 28 29 29 30 31 32 33 34 34 34 34 34 34 35 35 34 34 35 34 33 34 34 34
8 7 6 4 2 2 1 -2 -6 -6 -7 -4 -5 -6 -6 -4 -4 -4 -14 -11 -6 -4 -3 -4 -4 -4 -3 -2 2 10 9 8 9 22 27 28 27 26 26 25 24 25 26 26 27 27 27 27 28 28 28 27 27 27 26 25 25 25 26 26 25 26 27 29 30 30 29 29 30 31 32 33 34 34 34 34 34 34 35 34 33 33 33 33 33 32
7 7 7 2 3 3 6 -1 -0 -1 1 0 -1 -1 -4 -4 -4 -12 -13 -9 4 0 5 11 9 12 16 19 21 20 22 21 24 27 28 28 26 25 25 24 24 25 25 24 24 26 25 26 27 28 28 28 28 28 27 26 25 25 25 26 25 25 27 28 28 27 28 28 29 29 31 32 33 34 33 34 34 34 34 33 34 33 33 33 32 31
6 7 7 7 3 1 2 0 -2 -0 1 1 2 0 -3 -6 -12 -9 -2 -2 -1 -1 8 15 18 19 19 19 22 23 25 27 27 26 26 26 26 25 24 23 23 24 24 23 24 23 23 24 26 27 28 28 29 29 29 27 26 26 26 25 25 25 26 26 27 27 27 28 29 29 30 31 32 32 33 33 31 32 32 32 33 33 33 32 32 32
4 3 2 3 4 4 3 0 -2 -6 2 3 1 -2 0 -3 -2 3 1 6 4 1 4 16 15 16 20 21 22 24 25 25 26 26 27 26 26 24 23 22 22 23 22 20 20 21 22 23 24 26 27 28 29 30 29 28 27 26 26 25 25 26 26 26 26 26 27 27 28 28 29 30 31 32 32 32 32 32 32 32 32 31 32 31 31 31
7 3 2 3 5 -1 -1 -2 -4 -2 2 9 1 1 3 5 7 7 4 1 7 12 13 12 17 20 19 21 22 22 23 25 25 26 26 26 25 23 22 21 21 22 20 19 19 19 22 22 24 25 26 27 29 29 29 28 27 26 26 25 26 26 27 26 26 26 26 26 27 28 28 29 30 31 31 31 32 32 32 31 32 32 32 32 32 32
8 3 4 -0 5 1 -2 1 5 8 9 10 8 6 5 6 6 6 7 5 3 10 17 17 16 17 21 22 22 22 22 24 24 26 26 26 23 22 21 21 21 21 18 17 17 19 20 22 23 24 25 26 28 28 29 28 26 26 25 26 27 27 27 27 27 27 26 25 26 27 28 28 29 30 31 31 31 31 32 31 31 32 31 32 32 32
9 9 6 1 3 7 6 2 3 6 4 2 5 7 6 5 6 7 6 6 12 14 18 18 17 17 19 21 21 21 22 22 23 24 24 23 22 21 20 20 20 18 17 16 17 18 20 22 22 23 24 25 27 28 28 26 26 25 25 25 26 27 27 28 28 28 28 27 24 26 26 28 28 29 30 30 31 32 32 32 32 32 32 32 32 32
5 8 2 -2 1 4 -0 5 3 2 2 4 5 6 7 9 10 12 12 11 11 15 17 19 19 18 17 19 19 19 20 22 24 24 23 21 20 20 19 19 18 17 16 15 16 19 20 21 21 22 24 25 26 27 25 25 26 25 24 24 24 25 26 27 29 29 28 28 28 24 26 27 28 29 29 29 30 31 31 32 32 32 32 32 32 32
3 8 3 2 0 1 0 3 4 4 2 4 7 6 5 8 9 14 16 15 15 14 12 14 18 18 19 21 23 23 24 24 24 25 23 20 18 18 18 17 16 15 15 15 17 20 21 21 21 22 23 24 24 23 23 24 26 24 22 22 23 23 24 26 27 28 28 28 28 28 27 28 28 29 29 30 30 31 31 31 31 32 32 32 32 32
3 7 -0 3 1 2 2 3 3 2 2 3 4 6 7 6 8 8 11 13 14 14 15 18 19 19 20 21 23 23 23 23 23 22 20 17 17 17 15 13 13 14 14 15 17 20 20 20 20 21 22 21 20 20 21 23 24 23 20 19 19 21 22 24 26 27 28 29 29 28 27 28 29 29 29 29 30 31 31 31 31 32 32 32 33 33
6 3 4 5 -2 -1 -1 2 3 -3 -1 2 3 5 7 8 10 10 11 12 13 14 17 18 20 19 20 21 21 23 23 21 16 16 15 15 15 13 11 11 12 12 13 15 17 18 19 20 20 20 20 17 17 18 18 19 21 21 19 18 18 19 20 22 23 26 28 29 29 29 28 28 29 29 30 30 30 30 30 29 30 32 32 32 31 31
4 5 4 3 1 -0 2 2 5 3 3 5 4 7 7 8 9 9 9 10 11 13 16 18 17 17 19 17 13 20 15 14 10 13 13 13 11 10 10 11 11 11 12 14 16 17 18 18 19 20 17 16 16 15 16 17 18 19 17 16 16 17 18 19 22 24 26 28 29 30 30 29 29 29 30 30 30 30 30 29 29 31 32 31 30 31